TimeCST,TemperatureF,Dew PointF,Humidity,Sea Level PressureIn,VisibilityMPH,Wind Direction,Wind SpeedMPH,Gust SpeedMPH,PrecipitationIn,Events,Conditions,WindDirDegrees,DateUTC
12:15 AM,-11.2,-16.6,77,30.52,10.0,Calm,Calm,-,N/A,,Mostly Cloudy,0,2014-03-03 06:15:00
12:35 AM,-9.4,-16.6,71,30.51,10.0,Calm,Calm,-,N/A,,Mostly Cloudy,0,2014-03-03 06:35:00
12:55 AM,-9.4,-16.6,71,30.51,10.0,Calm,Calm,-,N/A,,Overcast,0,2014-03-03 06:55:00
1:15 AM,-7.6,-14.8,71,30.52,10.0,Calm,Calm,-,N/A,,Overcast,0,2014-03-03 07:15:00
1:35 AM,-7.6,-14.8,71,30.52,10.0,Calm,Calm,-,N/A,,Mostly Cloudy,0,2014-03-03 07:35:00
1:55 AM,-7.6,-13.0,77,30.52,10.0,Calm,Calm,-,N/A,,Overcast,0,2014-03-03 07:55:00
2:15 AM,-7.6,-13.0,77,30.51,10.0,Calm,Calm,-,N/A,,Overcast,0,2014-03-03 08:15:00
2:35 AM,-5.8,-13.0,71,30.50,10.0,SE,3.5,-,N/A,,Mostly Cloudy,130,2014-03-03 08:35:00
2:55 AM,-5.8,-13.0,71,30.49,10.0,South,5.8,-,N/A,,Clear,180,2014-03-03 08:55:00
3:15 AM,-5.8,-11.2,77,30.48,10.0,SSE,3.5,-,N/A,,Scattered Clouds,150,2014-03-03 09:15:00
3:30 AM,-5.8,-11.2,77,30.48,10.0,Calm,Calm,-,N/A,,Scattered Clouds,0,2014-03-03 09:30:00
3:55 AM,-4.0,-9.4,78,30.48,10.0,SSE,3.5,-,N/A,,Overcast,150,2014-03-03 09:55:00
4:15 AM,-4.0,-9.4,78,30.47,10.0,SSE,4.6,-,N/A,,Overcast,150,2014-03-03 10:15:00
4:35 AM,-4.0,-9.4,78,30.47,10.0,SE,4.6,-,N/A,,Overcast,140,2014-03-03 10:35:00
4:55 AM,-2.2,-7.6,78,30.46,10.0,SSE,4.6,-,N/A,,Overcast,150,2014-03-03 10:55:00
5:15 AM,-2.2,-7.6,78,30.46,10.0,SSE,5.8,-,N/A,,Overcast,150,2014-03-03 11:15:00
5:35 AM,-0.4,-7.6,72,30.45,10.0,SSE,5.8,-,N/A,,Overcast,160,2014-03-03 11:35:00
5:55 AM,-0.4,-7.6,72,30.44,10.0,SE,5.8,-,N/A,,Overcast,130,2014-03-03 11:55:00
6:15 AM,-0.4,-5.8,78,30.44,10.0,SE,5.8,-,N/A,,Overcast,140,2014-03-03 12:15:00
6:35 AM,-0.4,-5.8,78,30.43,10.0,SE,5.8,-,N/A,,Overcast,140,2014-03-03 12:35:00
6:55 AM,-0.4,-5.8,78,30.42,10.0,SE,6.9,-,N/A,,Overcast,140,2014-03-03 12:55:00
7:15 AM,-0.4,-5.8,78,30.41,10.0,SE,6.9,-,N/A,,Overcast,140,2014-03-03 13:15:00
7:35 AM,1.4,-5.8,72,30.41,10.0,SE,5.8,-,N/A,,Overcast,140,2014-03-03 13:35:00
7:55 AM,1.4,-5.8,72,30.41,10.0,SE,6.9,-,N/A,,Overcast,140,2014-03-03 13:55:00
8:10 AM,1.4,-5.8,72,30.40,10.0,SE,6.9,-,N/A,,Mostly Cloudy,140,2014-03-03 14:10:00
8:35 AM,3.2,-5.8,66,30.40,10.0,SE,9.2,-,N/A,,Scattered Clouds,140,2014-03-03 14:35:00
8:55 AM,3.2,-4.0,72,30.39,10.0,SE,9.2,-,N/A,,Scattered Clouds,140,2014-03-03 14:55:00
9:15 AM,3.2,-4.0,72,30.38,10.0,SSE,10.4,-,N/A,,Scattered Clouds,150,2014-03-03 15:15:00
9:35 AM,5.0,-4.0,66,30.38,10.0,SE,10.4,-,N/A,,Scattered Clouds,140,2014-03-03 15:35:00
9:55 AM,5.0,-2.2,72,30.37,10.0,SSE,10.4,-,N/A,,Scattered Clouds,160,2014-03-03 15:55:00
10:15 AM,5.0,-2.2,72,30.37,10.0,SSE,10.4,-,N/A,,Mostly Cloudy,150,2014-03-03 16:15:00
10:35 AM,6.8,-2.2,67,30.37,10.0,SSE,10.4,-,N/A,,Mostly Cloudy,150,2014-03-03 16:35:00
10:55 AM,6.8,-0.4,72,30.36,10.0,SSE,11.5,-,N/A,,Scattered Clouds,160,2014-03-03 16:55:00
11:15 AM,8.6,-0.4,67,30.36,10.0,SSE,11.5,-,N/A,,Mostly Cloudy,150,2014-03-03 17:15:00
11:35 AM,8.6,-0.4,67,30.34,10.0,SSE,13.8,-,N/A,,Overcast,160,2014-03-03 17:35:00
11:55 AM,8.6,-0.4,67,30.34,10.0,SE,10.4,-,N/A,,Overcast,140,2014-03-03 17:55:00
12:15 PM,8.6,-0.4,67,30.34,10.0,SSE,10.4,-,N/A,,Overcast,150,2014-03-03 18:15:00
12:35 PM,10.4,1.4,67,30.33,10.0,SE,11.5,-,N/A,,Overcast,140,2014-03-03 18:35:00
12:50 PM,10.4,-0.4,62,30.32,10.0,SE,10.4,-,N/A,,Overcast,140,2014-03-03 18:50:00
1:15 PM,10.4,1.4,67,30.30,10.0,SE,12.7,-,N/A,,Overcast,140,2014-03-03 19:15:00
1:35 PM,10.4,1.4,67,30.29,10.0,ESE,13.8,-,N/A,,Overcast,120,2014-03-03 19:35:00
1:55 PM,10.4,1.4,67,30.27,7.0,ESE,13.8,18.4,N/A,,Overcast,110,2014-03-03 19:55:00
2:15 PM,8.6,3.2,79,30.25,5.0,ESE,13.8,-,N/A,,Overcast,110,2014-03-03 20:15:00
2:35 PM,8.6,1.4,73,30.24,10.0,ESE,12.7,-,N/A,,Overcast,120,2014-03-03 20:35:00
2:55 PM,8.6,1.4,73,30.24,10.0,ESE,15.0,-,N/A,,Mostly Cloudy,120,2014-03-03 20:55:00
3:15 PM,8.6,1.4,73,30.23,10.0,ESE,15.0,21.9,N/A,,Mostly Cloudy,110,2014-03-03 21:15:00
3:35 PM,10.4,1.4,67,30.22,10.0,ESE,13.8,-,N/A,,Overcast,110,2014-03-03 21:35:00
3:55 PM,10.4,3.2,73,30.22,10.0,ESE,13.8,-,N/A,,Overcast,110,2014-03-03 21:55:00
4:15 PM,10.4,3.2,73,30.21,7.0,ESE,13.8,-,N/A,,Overcast,110,2014-03-03 22:15:00
4:35 PM,10.4,3.2,73,30.21,1.2,ESE,11.5,23.0,N/A,,Overcast,110,2014-03-03 22:35:00
4:55 PM,10.4,5.0,79,30.21,0.8,ESE,11.5,-,N/A,,Overcast,120,2014-03-03 22:55:00
5:15 PM,10.4,5.0,79,30.19,1.8,SE,12.7,18.4,N/A,,Overcast,130,2014-03-03 23:15:00
5:30 PM,10.4,5.0,79,30.19,3.0,SE,10.4,19.6,N/A,,Overcast,130,2014-03-03 23:30:00
5:55 PM,10.4,5.0,79,30.19,5.0,SE,12.7,-,N/A,,Overcast,130,2014-03-03 23:55:00
6:15 PM,10.4,5.0,79,30.19,10.0,SE,13.8,-,N/A,,Overcast,130,2014-03-04 00:15:00
6:35 PM,10.4,5.0,79,30.20,10.0,SE,11.5,-,N/A,,Overcast,130,2014-03-04 00:35:00
6:55 PM,10.4,5.0,79,30.21,10.0,SE,10.4,-,N/A,,Overcast,130,2014-03-04 00:55:00
7:15 PM,10.4,5.0,79,30.19,10.0,SE,11.5,-,N/A,,Overcast,140,2014-03-04 01:15:00
7:35 PM,10.4,5.0,79,30.18,10.0,SSE,16.1,-,N/A,,Overcast,150,2014-03-04 01:35:00
7:55 PM,10.4,5.0,79,30.18,10.0,SE,12.7,-,N/A,,Overcast,140,2014-03-04 01:55:00
8:15 PM,10.4,5.0,79,30.18,10.0,SSE,10.4,-,N/A,,Overcast,150,2014-03-04 02:15:00
8:35 PM,10.4,5.0,79,30.16,10.0,SE,12.7,-,N/A,,Overcast,140,2014-03-04 02:35:00
8:55 PM,10.4,5.0,79,30.16,10.0,SE,10.4,-,N/A,,Overcast,130,2014-03-04 02:55:00
9:15 PM,10.4,5.0,79,30.17,10.0,SE,10.4,-,N/A,,Overcast,130,2014-03-04 03:15:00
9:35 PM,10.4,5.0,79,30.19,10.0,SE,9.2,-,N/A,,Overcast,130,2014-03-04 03:35:00
9:55 PM,10.4,5.0,79,30.19,10.0,SE,10.4,-,N/A,,Overcast,140,2014-03-04 03:55:00
10:10 PM,10.4,5.0,79,30.18,10.0,SE,11.5,-,N/A,,Overcast,140,2014-03-04 04:10:00
10:35 PM,10.4,3.2,73,30.18,10.0,SE,9.2,-,N/A,,Overcast,140,2014-03-04 04:35:00
10:55 PM,10.4,3.2,73,30.17,10.0,SE,9.2,-,N/A,,Overcast,140,2014-03-04 04:55:00
11:15 PM,10.4,3.2,73,30.17,10.0,SE,9.2,-,N/A,,Overcast,140,2014-03-04 05:15:00
11:35 PM,10.4,3.2,73,30.17,10.0,SE,8.1,-,N/A,,Overcast,130,2014-03-04 05:35:00
11:55 PM,10.4,3.2,73,30.17,10.0,ESE,8.1,-,N/A,,Overcast,120,2014-03-04 05:55:00